Temperature
16 16 16 16 16 16 15 15 15 15 15 15 14 14 14 14 14 14 14 14 13 13 13 13 13 13 13 13 13 12 12 12 12 12 11 11 11 11 11 11 11 11 11
16 15 15 15 15 15 15 15 15 15 15 14 14 14 14 14 14 14 14 13 13 13 13 13 13 13 13 12 12 12 12 12 12 11 11 11 11 11 10 10 10 10 10
15 15 15 15 15 15 15 15 14 14 14 14 14 14 14 14 13 13 13 13 13 13 13 13 13 12 12 12 12 12 12 12 11 11 11 11 10 10 10 10 10 10 10
15 15 15 15 15 14 14 14 14 14 14 14 14 14 13 13 13 13 13 13 13 13 13 12 12 12 12 12 12 12 12 11 11 11 11 10 10 10 10 10 10 10 10
15 14 14 14 14 14 14 14 14 14 13 13 13 13 13 13 13 13 13 13 12 12 12 12 12 12 12 12 12 11 11 11 11 11 10 10 10 10 10 10 10 9 9
14 14 14 14 14 13 13 13 13 13 13 13 13 13 13 13 13 12 12 12 12 12 12 12 12 12 12 12 11 11 11 11 11 10 10 10 10 10 9 9 9 9 9
14 14 13 13 13 13 13 13 13 13 12 12 12 12 12 12 12 12 12 12 12 12 12 12 11 11 11 11 11 11 11 10 10 10 10 10 10 10 9 9 9 9 9
14 13 13 13 13 12 12 12 12 12 12 12 12 12 12 12 12 12 11 11 11 11 11 11 11 11 11 11 11 11 10 10 10 10 10 10 9 9 9 9 9 9 9
13 13 13 13 12 12 12 12 11 11 11 11 11 11 11 11 11 11 11 11 11 11 11 11 11 11 11 11 10 10 10 10 10 9 9 9 9 9 9 9 9 9 8
12 12 12 12 12 12 11 11 11 11 11 10 11 11 11 11 11 11 10 10 10 10 10 10 10 10 10 10 10 10 10 10 10 9 9 9 9 9 9 9 8 8 8
12 12 12 12 11 11 11 11 10 10 10 10 10 10 10 10 10 10 10 10 10 10 10 10 10 10 10 10 10 10 10 9 9 9 9 9 8 8 8 8 8 8 8
12 11 11 11 11 11 10 10 10 10 10 10 9 9 9 9 10 10 10 9 9 9 9 9 9 9 9 9 9 9 9 9 9 8 8 8 8 8 8 8 8 8 8
11 11 11 10 10 10 10 10 9 9 9 9 9 9 9 9 9 9 9 9 9 9 9 9 9 9 9 9 9 9 8 8 8 8 8 8 8 8 8 7 7 7 7
10 10 10 10 10 9 9 9 9 9 9 9 9 8 8 8 8 8 8 8 8 9 9 8 8 8 8 8 8 8 8 8 8 8 8 7 7 7 7 7 7 7 7
9 9 9 9 9 9 9 9 9 9 8 8 8 8 8 8 8 8 8 8 8 8 8 8 8 8 8 8 8 8 7 7 7 7 7 7 7 6 6 6 6 6 6
9 9 9 9 8 8 8 8 8 8 8 8 8 8 8 8 8 8 8 8 8 8 7 7 7 7 7 7 7 7 7 7 7 7 7 6 6 6 6 6 6 6 6
8 8 8 8 8 8 8 8 8 8 8 8 8 8 8 8 8 7 7 7 7 7 7 7 7 7 7 7 7 7 7 7 7 6 6 6 6 6 6 5 5 5 5
7 7 7 7 7 7 8 8 8 8 8 8 7 7 7 7 7 7 7 7 7 7 7 7 7 6 6 6 6 6 6 6 6 6 6 6 5 5 5 5 5 5 5
6 6 7 7 7 7 7 7 7 7 7 7 7 7 7 7 7 7 7 6 6 6 6 6 6 6 6 6 6 6 6 6 6 5 5 5 5 5 5 5 5 5 4
6 6 6 6 6 6 6 7 6 6 6 6 6 7 7 6 6 6 6 6 6 6 6 6 6 6 5 5 5 5 5 5 5 5 5 5 5 5 4 4 4 4 4
5 6 6 6 6 6 6 6 6 6 6 6 6 6 6 6 6 6 6 6 6 5 5 5 5 5 5 5 5 5 5 5 5 4 4 4 4 4 4 4 4 4 4
5 5 5 5 5 5 5 5 5 5 5 5 5 5 6 6 5 5 5 5 5 5 5 5 5 5 5 5 5 4 4 4 4 4 4 4 4 4 4 4 3 3 3
4 4 4 4 5 5 5 5 5 5 5 5 5 5 5 5 5 5 5 5 5 5 4 4 4 4 4 4 4 4 4 4 4 4 4 3 3 3 3 3 3 3 3
4 4 4 4 4 4 4 4 4 4 4 4 4 4 4 4 4 4 4 4 4 4 4 4 4 4 4 4 4 4 4 3 3 3 3 3 3 3 3 3 2 2 2
3 3 3 3 3 3 3 3 3 3 4 4 4 4 4 4 4 4 4 4 3 3 3 3 3 3 3 3 3 3 3 3 3 3 3 3 3 2 2 2 2 2 2
3 3 2 2 2 2 2 2 3 3 3 3 3 3 3 3 3 3 3 3 3 3 3 3 3 3 3 3 3 3 3 3 3 3 2 2 2 2 2 2 2 2 2
Wind_Speed
3 3 3 3 3 4 3 3 2 2 2 2 2 2 3 3 3 2 2 1 1 2 2 2 2 1 1 1 0 0 0 1 1 1 0 1 1 1 1 2 4 4 3
2 2 2 2 3 3 3 3 3 2 2 3 2 2 1 1 2 2 2 2 2 2 2 2 2 1 1 1 1 1 1 2 2 2 1 0 1 1 2 1 2 2 3
3 2 2 2 2 2 2 2 2 2 1 2 2 2 1 0 1 1 2 2 2 2 1 2 2 2 1 1 1 1 1 1 2 2 1 0 0 0 1 0 1 1 2
3 2 2 2 1 2 2 2 2 2 1 1 1 1 1 1 1 0 1 2 2 2 1 1 2 2 2 1 1 1 0 0 1 1 1 1 1 1 1 1 1 1 2
3 2 2 2 2 1 1 1 1 1 2 1 1 1 1 1 1 0 1 0 1 1 1 1 1 2 2 1 1 1 1 1 1 1 2 1 1 1 1 1 1 2 2
3 3 2 2 2 1 1 1 2 1 1 1 1 1 1 1 0 1 1 0 1 1 1 1 1 2 1 2 1 1 1 2 2 2 2 2 2 2 1 1 1 1 2
4 3 3 3 2 1 1 1 1 2 1 1 1 1 2 1 1 1 1 0 1 1 1 1 1 1 2 2 1 1 0 0 2 2 1 2 2 2 1 2 2 2 2
3 3 3 3 3 2 1 2 2 1 1 2 2 2 2 1 1 1 1 1 1 1 1 2 2 2 2 2 2 1 1 1 0 0 1 1 1 2 2 2 3 2 1
3 3 3 3 3 3 3 2 2 2 2 2 2 2 2 2 2 1 1 1 2 2 1 1 1 2 2 2 2 2 1 1 1 1 1 1 1 1 1 1 0 0 1
3 3 3 3 3 3 3 3 2 2 2 2 2 2 2 2 2 2 2 1 2 2 1 1 1 1 1 3 3 3 3 2 1 1 0 1 1 1 1 2 2 1 1
2 1 2 2 3 3 3 3 3 2 2 2 2 2 3 3 3 3 3 1 2 2 2 1 1 1 1 3 3 3 3 2 3 2 2 1 1 1 1 1 1 2 2
1 1 2 2 3 2 3 3 3 3 3 3 2 2 2 2 3 3 3 3 2 2 2 1 1 2 2 2 3 2 1 1 1 1 1 1 1 1 1 1 1 1 2
1 2 2 2 2 2 3 3 3 3 3 3 2 2 1 1 2 3 4 4 3 2 2 2 2 2 2 2 3 3 2 2 2 2 2 3 2 2 1 1 1 1 2
2 2 2 2 2 2 2 3 3 3 3 3 3 2 2 1 2 1 1 2 2 2 1 1 2 2 2 3 3 3 3 2 3 3 3 2 2 1 1 1 1 1 1
2 2 1 1 2 2 2 2 3 3 4 4 3 3 3 2 2 2 2 2 2 2 1 1 1 1 2 2 2 2 2 2 2 2 2 2 2 2 2 1 1 1 2
2 2 2 2 2 2 2 2 4 5 5 6 5 4 3 3 4 4 3 3 4 3 2 2 3 3 4 3 3 3 3 3 3 3 3 3 3 3 2 2 1 2 2
3 2 2 1 2 2 2 3 2 2 3 4 5 5 5 4 5 5 4 4 4 3 3 4 4 4 4 3 3 3 4 4 3 3 3 3 3 3 3 3 2 2 3
3 3 2 2 2 2 2 2 2 3 2 2 4 6 6 5 5 5 4 2 3 3 4 5 5 4 4 4 4 4 3 3 3 3 3 3 3 3 3 3 3 3 3
3 2 2 2 2 2 2 2 2 2 2 2 2 3 5 5 4 5 5 4 5 4 4 4 4 4 4 4 4 4 4 4 4 4 4 4 4 4 4 4 4 5 4
2 4 4 2 2 2 2 2 2 2 3 3 3 3 3 2 2 3 4 4 4 4 4 4 4 4 4 4 4 4 4 4 4 4 4 4 4 4 4 4 4 4 5
2 3 4 2 2 2 2 2 2 3 3 3 3 3 3 4 4 5 4 4 5 5 4 4 4 4 3 3 4 4 5 4 4 4 4 4 4 4 4 4 4 4 4
3 3 2 2 2 2 3 2 2 3 3 3 2 2 4 3 3 3 4 4 4 4 4 3 3 3 3 3 3 4 4 4 4 4 4 4 4 4 4 4 4 4 3
2 3 2 2 2 3 3 2 2 3 3 2 2 2 2 3 3 3 3 3 3 3 2 2 3 3 3 3 3 3 4 4 4 4 4 4 4 4 4 4 5 4 4
2 3 3 2 2 2 2 2 2 3 3 2 2 2 2 3 3 3 3 3 2 2 2 3 3 3 4 3 3 3 3 3 4 4 5 5 4 4 4 4 4 5 4
2 2 2 2 2 2 3 3 2 3 3 3 3 3 2 2 3 2 2 2 2 2 2 2 2 3 4 4 3 3 4 4 4 4 4 4 4 4 4 5 4 4 4
3 3 2 2 2 2 3 3 2 3 3 3 3 3 3 3 2 2 2 2 2 2 3 2 3 3 3 3 3 3 4 4 4 5 4 4 4 4 4 4 4 4 4
Wind_Direction
175 186 173 164 166 160 163 167 168 163 169 177 166 176 175 170 169 157 181 202 194 181 178 180 178 163 149 178 165 153 196 153 196 275 254 168 134 131 148 184 179 166 170
175 179 169 162 165 164 165 167 171 178 190 177 172 168 171 163 172 165 195 200 198 194 201 176 182 176 173 196 182 205 217 191 183 216 254 232 202 187 187 210 177 185 187
152 154 146 153 167 169 166 151 149 157 173 157 164 164 175 174 182 178 184 192 190 191 183 159 171 153 182 207 211 220 234 224 180 177 225 246 235 227 130 258 257 233 218
142 145 148 145 151 159 159 151 151 152 159 157 175 177 186 188 167 155 232 199 187 199 190 186 179 160 167 162 207 215 232 208 157 146 178 222 243 242 128 222 273 275 268
143 146 144 136 125 115 137 155 144 164 172 172 188 191 165 171 165 167 259 254 200 197 171 188 131 109 92 166 203 198 175 191 178 166 189 210 228 224 227 236 250 262 264
157 163 148 137 118 106 167 189 181 187 178 171 190 182 169 165 72 37 328 247 260 207 183 162 145 136 128 112 119 133 169 185 192 190 205 206 224 218 209 259 250 262 278
175 173 164 161 151 176 202 199 199 195 194 201 202 189 187 183 160 228 298 242 243 233 192 175 217 193 143 159 162 144 145 183 176 178 191 222 220 232 203 234 263 259 249
179 174 171 173 171 174 200 199 203 209 198 202 210 212 200 182 177 222 262 234 244 240 223 200 188 179 195 149 158 158 143 47 64 157 180 200 191 183 199 215 234 250 265
189 178 174 179 185 189 199 215 208 200 205 213 203 205 208 201 190 190 173 226 241 240 232 242 226 185 198 154 153 176 182 276 23 89 85 88 121 114 117 95 36 51 281
191 189 181 183 193 198 200 213 214 204 206 207 214 210 210 201 190 176 173 209 243 254 238 224 267 276 216 174 177 185 199 213 198 213 211 228 212 157 123 143 170 192 254
157 170 194 197 199 197 200 210 201 195 195 206 219 219 216 197 176 168 160 199 222 247 250 245 258 289 238 195 185 189 214 202 189 189 201 213 226 209 194 196 177 181 206
119 171 221 208 206 203 189 203 195 185 194 210 223 227 211 181 165 182 193 218 234 230 246 238 235 250 256 229 214 213 195 162 166 179 193 208 213 218 227 230 229 220 221
244 212 222 223 214 198 189 198 203 193 194 206 210 214 214 167 168 177 202 225 246 241 246 247 231 238 252 243 227 231 214 190 184 192 211 225 223 213 199 232 265 263 267
259 231 222 222 229 213 197 196 199 199 197 202 204 210 215 188 157 157 206 230 251 257 274 287 260 238 227 234 239 234 228 216 199 206 212 219 216 195 195 207 236 245 279
282 248 230 242 238 231 215 203 200 201 193 196 204 207 207 210 205 187 192 216 219 226 239 236 228 217 220 228 224 224 224 224 227 222 212 210 205 203 215 222 225 233 239
282 265 237 229 235 227 220 241 223 210 199 198 201 207 220 215 205 207 219 234 233 223 217 220 222 218 218 225 228 227 224 223 222 221 224 218 211 211 221 239 244 234 239
288 282 274 255 242 240 232 217 228 241 213 212 217 219 216 211 208 211 220 225 229 209 213 225 225 223 221 223 229 228 231 233 225 219 224 230 224 218 221 231 234 240 243
299 289 284 267 258 247 236 224 211 212 222 238 230 221 217 214 215 214 211 201 231 224 224 225 226 224 221 222 225 229 232 234 230 226 228 232 225 223 227 226 228 235 239
301 295 285 279 274 262 252 239 228 229 239 239 220 216 215 218 222 221 203 212 223 233 236 235 232 229 227 224 225 222 221 226 229 226 226 227 227 226 231 230 228 237 235
294 293 296 280 282 288 275 256 249 246 244 244 235 217 190 182 212 222 222 227 233 241 239 236 237 237 234 228 227 225 225 227 229 231 232 230 228 229 235 234 234 238 235
303 292 291 290 278 276 272 262 253 251 249 246 247 233 200 205 217 222 225 228 232 238 241 237 234 233 236 234 229 228 229 230 228 229 230 234 232 233 236 235 238 239 240
304 299 295 286 285 280 279 281 275 263 263 265 262 254 228 224 229 232 231 232 233 233 232 228 234 234 231 233 234 231 232 233 231 229 232 235 236 238 236 233 234 237 237
302 296 296 286 282 289 287 279 281 278 271 268 259 253 236 237 242 241 239 237 234 230 234 227 228 236 237 233 231 231 236 238 233 230 237 241 239 237 237 237 235 236 236
307 306 303 299 291 289 286 279 279 284 281 275 270 263 253 247 252 253 249 245 241 236 241 235 233 230 231 232 237 243 250 254 249 236 234 240 241 244 243 241 239 239 237
327 319 316 315 314 307 302 294 288 285 281 280 279 275 271 266 258 256 253 246 245 250 257 255 247 240 233 227 231 247 258 256 255 247 237 231 236 238 245 245 242 241 239
333 326 324 324 320 311 304 302 299 299 293 292 293 292 284 275 263 261 257 245 243 247 255 264 260 256 250 240 237 245 255 252 248 247 239 231 230 236 241 244 242 238 237
Height
1506 1507 1509 1511 1512 1513 1514 1515 1516 1517 1518 1519 1520 1521 1522 1523 1524 1524 1525 1526 1527 1527 1528 1528 1529 1529 1529 1529 1529 1529 1529 1529 1528 1528 1528 1528 1527 1526 1525 1524 1524 1523 1522
1504 1505 1507 1509 1510 1511 1512 1512 1514 1515 1515 1516 1517 1518 1519 1520 1521 1522 1523 1524 1525 1525 1526 1526 1526 1526 1527 1527 1527 1527 1527 1527 1526 1526 1526 1526 1525 1525 1524 1523 1522 1521 1521
1501 1503 1505 1506 1507 1508 1509 1510 1511 1512 1513 1514 1514 1515 1517 1518 1519 1519 1520 1521 1522 1523 1523 1523 1523 1524 1524 1524 1524 1524 1524 1524 1524 1524 1523 1523 1523 1523 1522 1521 1521 1520 1519
1500 1501 1502 1503 1504 1505 1506 1507 1508 1509 1510 1511 1512 1513 1514 1515 1516 1517 1518 1518 1519 1520 1521 1521 1521 1521 1521 1521 1521 1521 1521 1521 1521 1521 1521 1521 1521 1520 1520 1519 1518 1518 1518
1498 1499 1500 1501 1502 1503 1504 1504 1505 1506 1507 1508 1509 1510 1511 1512 1513 1514 1515 1515 1516 1517 1517 1518 1518 1518 1519 1519 1518 1518 1518 1518 1518 1518 1518 1518 1518 1518 1517 1517 1516 1516 1516
1496 1497 1498 1499 1499 1500 1501 1501 1502 1503 1504 1505 1506 1507 1508 1508 1510 1511 1512 1512 1513 1513 1514 1514 1515 1515 1515 1515 1515 1515 1516 1516 1515 1515 1515 1515 1515 1515 1515 1515 1514 1514 1513
1493 1494 1495 1496 1496 1497 1498 1498 1499 1500 1501 1502 1503 1504 1504 1505 1506 1507 1509 1509 1510 1510 1511 1511 1512 1512 1512 1512 1512 1513 1513 1513 1513 1513 1513 1512 1512 1512 1512 1512 1512 1511 1511
1490 1491 1492 1493 1493 1494 1495 1495 1496 1496 1497 1498 1499 1500 1501 1502 1503 1504 1505 1506 1506 1507 1507 1508 1508 1509 1508 1509 1509 1509 1509 1509 1510 1510 1510 1510 1510 1510 1510 1510 1509 1509 1508
1487 1488 1489 1490 1490 1491 1491 1491 1492 1493 1494 1495 1496 1497 1498 1499 1500 1501 1502 1502 1503 1503 1504 1505 1505 1505 1505 1505 1505 1505 1506 1506 1506 1506 1507 1507 1507 1507 1507 1506 1506 1506 1505
1483 1484 1485 1486 1487 1487 1488 1489 1489 1490 1491 1492 1492 1494 1495 1495 1496 1497 1498 1498 1499 1499 1500 1501 1501 1502 1502 1502 1502 1502 1502 1502 1502 1503 1503 1503 1503 1503 1503 1503 1503 1502 1502
1481 1481 1482 1483 1483 1484 1485 1485 1486 1487 1488 1488 1489 1490 1491 1492 1493 1494 1494 1495 1495 1495 1496 1496 1497 1498 1498 1499 1499 1499 1499 1499 1499 1499 1499 1499 1499 1499 1499 1499 1500 1500 1499
1477 1477 1478 1479 1480 1481 1481 1482 1482 1483 1484 1485 1486 1486 1487 1488 1489 1490 1490 1491 1491 1492 1492 1493 1493 1494 1495 1495 1495 1495 1496 1496 1495 1495 1495 1495 1495 1495 1496 1496 1496 1496 1496
1473 1474 1474 1475 1476 1477 1477 1478 1479 1479 1480 1481 1482 1483 1483 1484 1485 1486 1486 1487 1488 1488 1488 1489 1490 1490 1491 1491 1491 1492 1492 1492 1492 1492 1492 1492 1492 1492 1492 1493 1493 1493 1493
1470 1471 1471 1471 1472 1473 1474 1474 1475 1475 1477 1477 1478 1479 1480 1480 1481 1482 1482 1483 1483 1484 1484 1485 1486 1486 1486 1487 1487 1487 1488 1488 1488 1488 1488 1489 1489 1489 1489 1489 1489 1488 1488
1467 1468 1468 1468 1469 1469 1470 1470 1471 1472 1473 1474 1474 1475 1476 1476 1477 1478 1479 1479 1479 1480 1480 1481 1481 1481 1481 1482 1482 1483 1484 1484 1484 1484 1485 1485 1485 1485 1485 1485 1485 1485 1484
1464 1464 1464 1464 1465 1465 1466 1467 1468 1469 1470 1471 1471 1472 1473 1473 1474 1474 1475 1476 1476 1476 1476 1476 1476 1476 1477 1477 1478 1478 1479 1479 1480 1480 1480 1481 1481 1481 1481 1482 1481 1481 1480
1460 1461 1461 1461 1461 1462 1463 1463 1464 1465 1466 1467 1468 1469 1469 1470 1470 1471 1471 1471 1472 1472 1471 1471 1472 1472 1472 1473 1473 1474 1474 1475 1475 1475 1476 1476 1477 1477 1477 1477 1477 1477 1477
1457 1458 1457 1457 1458 1459 1459 1460 1460 1461 1461 1462 1463 1464 1465 1466 1466 1466 1467 1467 1467 1467 1466 1466 1467 1467 1468 1468 1469 1469 1469 1470 1471 1471 1471 1471 1472 1472 1472 1472 1472 1473 1473
1454 1454 1454 1454 1455 1455 1456 1456 1457 1457 1458 1458 1459 1460 1460 1461 1462 1462 1462 1462 1461 1461 1461 1461 1462 1462 1463 1463 1464 1464 1465 1465 1466 1466 1466 1466 1467 1467 1467 1468 1468 1468 1468
1451 1451 1451 1451 1452 1452 1452 1453 1453 1454 1454 1454 1454 1455 1456 1456 1456 1456 1457 1457 1457 1457 1457 1457 1457 1458 1458 1458 1459 1459 1460 1460 1461 1461 1461 1461 1462 1462 1462 1463 1463 1463 1463
1448 1448 1448 1448 1449 1449 1449 1449 1449 1450 1450 1450 1450 1451 1451 1451 1451 1451 1451 1452 1452 1452 1452 1452 1452 1452 1453 1453 1453 1454 1454 1455 1455 1455 1456 1456 1456 1456 1457 1457 1457 1458 1458
1445 1445 1445 1445 1445 1445 1445 1445 1446 1446 1446 1446 1445 1446 1446 1446 1446 1446 1446 1446 1447 1447 1447 1447 1447 1447 1447 1448 1448 1448 1449 1449 1449 1450 1450 1450 1451 1451 1451 1451 1452 1452 1453
1442 1442 1442 1442 1442 1442 1442 1442 1442 1442 1442 1441 1441 1441 1441 1441 1441 1441 1441 1441 1441 1441 1442 1442 1442 1442 1442 1443 1443 1443 1443 1443 1444 1444 1444 1445 1445 1445 1445 1446 1446 1446 1447
1440 1439 1439 1439 1439 1438 1438 1438 1438 1438 1438 1438 1437 1437 1437 1436 1436 1436 1436 1436 1436 1436 1437 1437 1437 1437 1437 1437 1438 1438 1438 1438 1438 1439 1439 1439 1439 1439 1440 1440 1441 1441 1442
1437 1436 1436 1436 1435 1435 1435 1435 1434 1434 1434 1433 1433 1432 1432 1431 1431 1431 1431 1431 1431 1431 1431 1431 1432 1432 1432 1432 1432 1432 1433 1433 1433 1433 1433 1434 1433 1434 1434 1435 1435 1436 1437
1434 1434 1434 1433 1433 1433 1432 1431 1430 1430 1430 1429 1428 1428 1427 1427 1426 1426 1426 1426 1426 1426 1426 1426 1426 1427 1427 1427 1427 1427 1427 1427 1427 1427 1428 1428 1428 1428 1429 1430 1430 1431 1432